Location: Port Stanley
(42.6641°N, 81.2156°W)
Time: 19:10:14
(UTC-04:00)

ISS - Pass Details

Date: 04 July 2019
Orbit: 409 x 418 km, 51.6° (Epoch: 23 July)

Event Time Altitude Azimuth Distance (km) Brightness Sun altitude
Exits shadow 03:32:17 41° 138° (SE) 605 -3.2 -18.6°
Drops below altitude 10° 03:35:25 10° 68° (ENE) 1,477 -0.2 -18.3°
Sets 03:37:34 0° 61° (ENE) 2,340 1.1 -18.1°
